Station CAMM2 - 8571892 - Cambridge, MD Image indicating link to RSS feed of recent meteorological observations for station CAMM2


Conditions at CAMM2 as of
(1:18 am EDT)
0518 GMT on 05/20/2024:
     

Click on the graph icon in the table below to see a time series plot of the last five days of that observation.

5-day plot - Atmospheric Pressure Atmospheric Pressure (PRES):30.04 in
5-day plot - Water Temperature Water Temperature (WTMP): 66.7 °F
NOS Water Level Observation Network Water Level
Previous observations
TIME
(EDT)
5-day plot - Wind Direction
WDIR
 
5-day plot - Wind Speed
WSPD
kts
5-day plot - Wind Gust
GST
kts
5-day plot - Wave Height
WVHT
ft
5-day plot - Dominant Wave Period
DPD
sec
5-day plot - Average Wave Period
APD
sec
5-day plot - Mean Wave Direction
MWD
 
5-day plot - Atmospheric Pressure
PRES
in
5-day plot - Pressure Tendency
PTDY
in
5-day plot - Air Temperature
ATMP
°F
5-day plot - Water Temperature
WTMP
°F
5-day plot - Dew Point
DEWP
°F
5-day plot - Salinity
SAL
psu
5-day plot - Visibility
VIS
nmi
5-day plot - Tide (above MLLW)
TIDE
ft
2024-05-20 01:12 am-------30.04-- 66.7----
2024-05-20 01:06 am-------30.04-- 66.7----
2024-05-20 01:00 amESE 8.9 9.9----30.04+0.01 60.1 66.7----
2024-05-20 12:54 amESE 8.0 9.9----30.04- 60.6 66.9----
2024-05-20 12:48 amESE 8.0 9.9----30.04- 60.8 66.9----
2024-05-20 12:42 amESE 8.9 11.1----30.04- 60.8 66.7----
2024-05-20 12:36 amESE 8.9 11.1----30.04- 61.3 66.7----
2024-05-20 12:30 amESE 8.9 11.1----30.04- 61.9 66.7----
2024-05-20 12:24 amESE 8.9 9.9----30.03- 61.7 66.9----
2024-05-20 12:18 amESE 6.0 8.0----30.03- 62.1 66.9----
2024-05-20 12:12 amESE 6.0 7.0----30.04- 62.2 66.9----
2024-05-20 12:06 amESE 6.0 7.0----30.04- 62.1 66.9----
2024-05-20 12:00 amESE 5.1 7.0----30.04+0.03 62.1 66.9----
2024-05-19 11:54 pm SE 4.1 6.0----30.04- 62.2 66.9----
2024-05-19 11:48 pmESE 4.1 5.1----30.04- 62.1 66.9----
2024-05-19 11:42 pm SE 5.1 6.0----30.04- 61.9 67.1----
2024-05-19 11:36 pmSSE 5.1 7.0----30.04- 61.9 67.1----
2024-05-19 11:30 pm SE 5.1 6.0----30.04- 62.1 67.1----
2024-05-19 11:24 pm SE 5.1 6.0----30.04- 61.9 67.1----
2024-05-19 11:18 pmSSE 4.1 5.1----30.04-- 67.1----
2024-05-19 11:12 pm SE 5.1 6.0----30.04-- 67.3----
2024-05-19 11:06 pm SE 5.1 6.0----30.04-- 67.3----
2024-05-19 11:00 pmSSE 5.1 6.0----30.04+0.06 62.4 67.3----
2024-05-19 10:54 pmSSE 6.0 7.0----30.04- 62.6 67.5----
2024-05-19 10:48 pm SE 6.0 8.0----30.04- 62.6 67.5----
2024-05-19 10:42 pm SE 6.0 8.0----30.04- 63.0 67.5----
2024-05-19 10:36 pmESE 7.0 8.9----30.04- 63.1 67.5----
2024-05-19 10:30 pm SE 6.0 8.0----30.03- 63.5 67.5----
2024-05-19 10:24 pm SE 5.1 7.0----30.03- 63.7 67.5----
2024-05-19 10:18 pm SE 5.1 7.0----30.03- 63.7 67.5----
2024-05-19 10:12 pm SE 5.1 6.0----30.03- 63.9 67.5----
2024-05-19 10:06 pm SE 6.0 7.0----30.03- 63.9 67.5----
2024-05-19 10:00 pm SE 6.0 7.0----30.03- 64.2 67.5----
2024-05-19 09:54 pm SE 6.0 8.0----30.03- 64.4 67.5----
2024-05-19 09:48 pm SE 6.0 8.9----30.02- 64.8 67.5----
2024-05-19 09:42 pm SE 7.0 8.0----30.02- 64.9 67.5----
2024-05-19 09:36 pm SE 7.0 8.0----30.02- 65.3 67.5----
2024-05-19 09:30 pm SE 6.0 8.0----30.02-- 67.5----
2024-05-19 09:24 pm SE 7.0 8.9----30.01-- 67.5----
2024-05-19 09:18 pm SE 8.0 8.9----30.01-- 67.5----
2024-05-19 09:12 pm SE 7.0 8.0----30.01-- 67.5----
2024-05-19 09:06 pmESE 7.0 8.9----30.01-- 67.5----
2024-05-19 09:00 pmESE 7.0 8.0----30.01+0.04- 67.5----
2024-05-19 08:54 pmESE 8.0 8.9----30.01-- 67.5----
2024-05-19 08:48 pmESE 7.0 8.0----30.01- 67.6 67.5----
2024-05-19 08:42 pm SE 6.0 8.0----30.00- 67.8 67.5----
2024-05-19 08:36 pm SE 7.0 8.9----30.00- 68.0 67.6----
2024-05-19 08:30 pm SE 8.0 8.9----29.99- 68.4 67.6----
2024-05-19 08:24 pm SE 4.1 7.0----29.99- 69.1 67.6----
2024-05-19 08:18 pm---------- 67.6----
2024-05-19 08:12 pm---------- 67.6----
2024-05-19 08:06 pm---------- 67.6----
2024-05-19 08:00 pm SE 1.9 1.9----29.98+0.00- 67.6----
2024-05-19 07:54 pm- 0.0 1.0----29.97-- 67.6----
2024-05-19 07:48 pm- 0.0 1.0------------
2024-05-19 07:42 pm NW 1.0 1.9------------
2024-05-19 07:36 pm NW 1.9 1.9------------
2024-05-19 07:30 pm N 1.0 1.9----29.98- 71.2 67.5----
2024-05-19 07:24 pm N 1.9 1.9----29.98- 70.9 67.5----
2024-05-19 07:00 pmNNW 1.9 2.9------- 67.3----
2024-05-19 06:54 pm N 2.9 5.1------- 67.3----
2024-05-19 06:48 pm N 4.1 5.1----29.97-- 67.3----
2024-05-19 06:42 pmNNW 2.9 6.0----29.97-- 67.3----
2024-05-19 06:36 pmNNW 4.1 5.1----29.97-- 67.3----
2024-05-19 06:30 pmNNW 4.1 6.0----29.97-- 67.3----
2024-05-19 06:24 pm N 1.9 5.1----29.97-- 67.3----
2024-05-19 06:18 pm-------29.97- 69.6 67.3----
2024-05-19 06:12 pm-------29.97- 69.3 67.1----
2024-05-19 06:06 pm-------29.97- 68.9 67.1----
2024-05-19 06:00 pm NW 5.1 7.0----29.97-0.01 68.9 67.1----
2024-05-19 05:54 pmNNW 6.0 8.0----29.97- 68.9 67.1----
2024-05-19 05:48 pmNNW 7.0 8.9----29.97- 68.7 67.1----
2024-05-19 05:42 pm NW 7.0 8.9----29.97- 68.7 67.1----
2024-05-19 05:36 pm NW 8.0 9.9----29.97- 68.7 67.1----
2024-05-19 05:30 pm NW 8.0 8.9----29.97- 68.7 67.1----
2024-05-19 05:24 pm NW 8.0 8.9----29.97- 68.7 67.1----
2024-05-19 05:18 pm NW 7.0 8.9----29.97- 68.5 67.1----
2024-05-19 05:12 pmNNW 7.0 8.0----29.97- 68.7 67.1----
2024-05-19 05:06 pm NW 6.0 8.0----29.98- 68.7 67.1----
2024-05-19 05:00 pm NW 8.0 8.9----29.98-0.01 68.5 67.3----
2024-05-19 04:54 pm NW 8.0 9.9----29.98- 68.7 67.3----
2024-05-19 04:48 pm NW 8.9 12.0----29.97- 68.5 67.3----
2024-05-19 04:42 pm NW 11.1 12.0----29.97- 68.5 67.3----
2024-05-19 04:36 pm NW 9.9 13.0----29.97- 68.5 67.3----
2024-05-19 04:30 pm NW 9.9 12.0----29.97- 68.7 67.3----
2024-05-19 04:24 pm NW 8.0 11.1----29.97- 68.7 67.3----
2024-05-19 04:18 pm NW 8.0 9.9----29.97- 68.5 67.3----
2024-05-19 04:12 pm NW 9.9 11.1----29.97- 68.2 67.3----
2024-05-19 04:06 pm NW 8.9 11.1----29.97- 68.2 67.3----
2024-05-19 04:00 pm NW 8.9 11.1----29.97-0.04- 67.3----
2024-05-19 03:54 pm NW 8.9 9.9----29.97-- 67.1----
2024-05-19 03:48 pm NW 8.9 9.9----29.97-- 67.1----
2024-05-19 03:42 pm NW 8.0 11.1----29.98-- 67.1----
2024-05-19 03:36 pm NW 8.9 11.1----29.98-- 66.9----
2024-05-19 03:30 pm NW 6.0 8.9----29.98- 68.4 66.9----
2024-05-19 03:24 pm NW 8.0 9.9----29.98- 68.4 66.9----
2024-05-19 03:18 pm NW 8.0 11.1----29.98- 68.4 66.9----
2024-05-19 03:12 pm NW 8.0 9.9----29.98- 68.0 66.9----
2024-05-19 03:06 pm NW 6.0 8.9----29.98- 68.0 66.9----
2024-05-19 03:00 pm NW 7.0 8.9----29.98-0.03- 66.9----
2024-05-19 02:54 pm NW 7.0 8.9----29.98-- 66.9----
2024-05-19 02:48 pm NW 6.0 8.0----29.99- 67.5 66.9----
2024-05-19 02:42 pm NW 6.0 8.0----29.99- 67.3 66.9----
2024-05-19 02:36 pm NW 6.0 8.0----29.99- 67.1 66.9----
2024-05-19 02:30 pm NW 8.0 11.1----29.99- 67.1 66.9----
2024-05-19 02:24 pm NW 8.0 9.9----29.99- 67.1 66.9----
2024-05-19 02:18 pm NW 8.0 8.9----29.99- 67.3 66.9----
2024-05-19 02:12 pm NW 6.0 8.0----29.99- 67.5 66.9----
2024-05-19 02:06 pm NW 7.0 8.0----29.99- 67.3 66.9----
2024-05-19 02:00 pm NW 5.1 8.0----29.99-0.02 67.6 66.7----
2024-05-19 01:54 pm NW 6.0 8.9----29.99- 67.5 66.7----
2024-05-19 01:48 pm NW 8.0 9.9----29.99- 67.1 66.7----
2024-05-19 01:42 pm NW 7.0 8.9----30.00- 67.3 66.7----
2024-05-19 01:36 pm NW 6.0 8.9----30.00- 66.7 66.7----
2024-05-19 01:30 pm NW 6.0 8.9----30.00- 66.4 66.7----
2024-05-19 01:24 pm NW 7.0 9.9----30.01- 66.4 66.7----
2024-05-19 01:18 pm NW 8.0 8.9----30.00-- 66.7----
2024-05-19 01:12 pm NW 6.0 7.0----30.01-- 66.7----
2024-05-19 01:06 pm NW 7.0 8.9----30.01-- 66.7----
2024-05-19 01:00 pm NW 7.0 8.0----30.01+0.00- 66.7----
2024-05-19 12:54 pm N 4.1 6.0----30.01-- 66.7----
2024-05-19 12:48 pm N 4.1 5.1----30.01- 68.4 66.7----
2024-05-19 12:42 pm N 4.1 5.1----30.01- 68.7 66.7----
2024-05-19 12:36 pmENE 2.9 5.1----30.01- 68.9 66.7----
2024-05-19 12:30 pmNNE 4.1 6.0----30.01- 68.7 66.7----
2024-05-19 12:24 pmNNE 2.9 5.1----30.01- 68.4 66.7----
2024-05-19 12:18 pmENE 2.9 5.1----30.02- 68.4 66.6----
2024-05-19 12:12 pm NE 5.1 6.0----30.01- 68.4 66.6----
2024-05-19 12:06 pmENE 6.0 7.0----30.01- 68.2 66.6----
2024-05-19 12:00 pm NE 4.1 5.1----30.01+0.00 68.2 66.6----
2024-05-19 11:54 am NE 4.1 7.0----30.01- 68.2 66.6----
2024-05-19 11:48 amNNE 5.1 8.0----30.01- 67.8 66.4----
2024-05-19 11:42 amNNE 5.1 8.0----30.01- 67.8 66.4----
2024-05-19 11:36 amNNE 6.0 7.0----30.01- 67.6 66.4----
2024-05-19 11:30 amNNE 5.1 6.0----30.01- 67.6 66.4----
2024-05-19 11:24 am N 2.9 7.0----30.01- 67.5 66.4----
2024-05-19 11:18 am-------30.01- 66.7 66.2----
2024-05-19 11:12 am-------30.01- 66.7 66.2----
2024-05-19 11:06 am-------30.01- 67.1 66.0----
2024-05-19 11:00 am-------30.01+0.00 66.9 66.0----
2024-05-19 10:54 am-------30.01- 66.6 66.0----
2024-05-19 10:48 am-------30.01- 66.2 66.2----
2024-05-19 10:42 am-------30.01- 66.4 66.2----
2024-05-19 10:36 am-------30.01- 66.4 66.2----
2024-05-19 10:30 am NE 5.1 7.0----30.01- 66.0 66.2----
2024-05-19 10:24 amNNE 4.1 7.0----30.01- 66.2 66.2----
2024-05-19 10:18 amNNE 6.0 8.9----30.01- 65.8 66.2----
2024-05-19 10:12 amNNE 2.9 6.0----30.01- 66.0 66.2----
2024-05-19 10:06 am NE 4.1 5.1----30.01- 65.7 66.2----
2024-05-19 10:00 am NE 2.9 5.1----30.01+0.00- 66.2----
2024-05-19 09:54 am NE 4.1 7.0----30.01-- 66.2----
2024-05-19 09:48 am-------30.01- 64.8 66.2----
2024-05-19 09:42 am-------30.01- 64.6 66.2----
2024-05-19 09:36 am-------30.01- 64.2 66.0----
2024-05-19 09:30 am NE 5.1 8.0----30.01-- 66.0----
2024-05-19 09:24 am NE 5.1 7.0----30.01-- 66.0----
2024-05-19 09:18 am NE 4.1 5.1----30.01-- 66.0----
2024-05-19 09:12 amNNE 4.1 5.1----30.01-- 66.0----
2024-05-19 09:06 am N 1.9 4.1----30.01-- 66.0----
2024-05-19 09:00 am N 2.9 5.1----30.01+0.02- 66.0----
2024-05-19 08:54 am N 4.1 5.1----30.01-- 66.0----
2024-05-19 08:48 am N 5.1 6.0----30.01- 62.4 66.0----
2024-05-19 08:42 am N 4.1 6.0----30.01- 61.9 66.0----
2024-05-19 08:36 am N 4.1 6.0----30.01- 61.7 65.8----
2024-05-19 08:30 am-------30.01- 61.7-----
2024-05-19 08:24 am-------30.01- 61.2-----
2024-05-19 08:18 amNNE 2.9 6.0----30.01-- 65.8----
2024-05-19 08:12 am N 4.1 5.1----30.01-- 65.8----
2024-05-19 08:06 am N 4.1 5.1----30.01-- 65.8----
2024-05-19 08:00 am N 2.9 5.1----30.01+0.04 60.8 65.8----
2024-05-19 07:54 am N 4.1 5.1----30.01- 60.6 65.8----
2024-05-19 07:48 am N 2.9 4.1----30.01- 60.6 65.8----
2024-05-19 07:42 am N 2.9 4.1----30.01- 60.4 65.8----
2024-05-19 07:36 am N 2.9 4.1----30.01- 60.4 65.8----
2024-05-19 07:30 am N 2.9 4.1----30.01- 60.4 65.8----
2024-05-19 07:24 am N 2.9 4.1----30.01- 60.3 65.8----
2024-05-19 07:18 amNNE 1.9 2.9----30.01- 60.1 65.8----
2024-05-19 07:12 am N 1.9 2.9----30.01- 60.1 65.8----
2024-05-19 07:06 am N 1.9 2.9----30.00- 59.9 65.8----
2024-05-19 07:00 am N 1.9 2.9----30.00+0.04------
2024-05-19 06:54 am N 1.9 2.9----30.00-------
2024-05-19 06:48 am N 1.9 2.9----30.00-- 65.8----
2024-05-19 06:42 am N 1.9 4.1----30.00-- 65.8----
2024-05-19 06:36 amNNE 2.9 4.1----30.00-- 65.8----
2024-05-19 06:30 amNNE 2.9 5.1----29.99- 59.5 66.0----
2024-05-19 06:24 am N 2.9 4.1----29.99- 59.5 66.0----
2024-05-19 06:18 amNNE 4.1 5.1----29.99-- 66.0----
2024-05-19 06:12 amNNE 4.1 5.1----29.99-- 66.0----
2024-05-19 06:06 amNNE 2.9 4.1----29.99-- 66.0----
2024-05-19 06:00 am-------29.99+0.02------
2024-05-19 05:54 am-------29.99-------
2024-05-19 05:48 amENE 5.1 6.0----29.98- 59.2 66.0----
2024-05-19 05:42 amENE 4.1 5.1----29.98- 59.4 66.0----
2024-05-19 05:36 am NE 4.1 6.0----29.98- 59.4 66.0----
2024-05-19 05:30 am NE 4.1 6.0----29.98- 59.4 66.0----
2024-05-19 05:24 am NE 4.1 6.0----29.97- 59.2 66.0----
2024-05-19 05:18 am NE 4.1 5.1----29.97-------
2024-05-19 05:12 amNNE 4.1 5.1----29.97- 59.2 66.0----
2024-05-19 05:06 amNNE 4.1 5.1----29.97- 59.2 66.0----
2024-05-19 05:00 amNNE 4.1 7.0----29.97+0.00 59.2 66.0----
2024-05-19 04:54 amNNE 5.1 7.0----29.97- 59.2 66.0----
2024-05-19 04:48 amNNE 5.1 6.0----29.97- 59.0 66.0----
2024-05-19 04:42 amNNE 5.1 6.0----29.97- 59.4 66.0----
2024-05-19 04:36 amNNE 4.1 6.0----29.97- 59.2 66.0----
2024-05-19 04:30 amNNE 2.9 5.1----29.97- 59.4 66.0----
2024-05-19 04:24 am NE 4.1 5.1----29.96- 59.0 66.0----
2024-05-19 04:18 amNNE 4.1 6.0----29.96-- 66.0----
2024-05-19 04:12 amNNE 5.1 6.0----29.96- 59.2 66.2----
2024-05-19 04:06 am N 5.1 7.0----29.96- 59.0 66.2----
2024-05-19 04:00 am N 5.1 7.0----29.96-0.02 59.2 66.2----
2024-05-19 03:54 amNNE 5.1 6.0----29.96- 59.0 66.2----
2024-05-19 03:48 amNNE 5.1 7.0----29.96-- 66.2----
2024-05-19 03:42 amNNE 5.1 6.0----29.96- 58.8 66.2----
2024-05-19 03:36 am N 4.1 6.0----29.96- 59.0 66.2----
2024-05-19 03:30 am N 5.1 6.0----29.96- 59.0 66.2----
2024-05-19 03:24 am N 4.1 5.1----29.96- 58.8 66.2----
2024-05-19 03:18 am N 4.1 5.1----29.96- 59.0 66.2----
2024-05-19 03:12 amNNE 5.1 5.1----29.96- 59.0 66.2----
2024-05-19 03:06 amNNE 2.9 5.1----29.96- 59.2 66.2----
2024-05-19 03:00 amENE 4.1 5.1----29.96-0.01 59.0 66.2----
2024-05-19 02:54 amENE 4.1 5.1----29.96- 59.2 66.2----
2024-05-19 02:48 amENE 5.1 7.0----29.96- 59.2 66.2----
2024-05-19 02:42 am NE 5.1 6.0----29.97- 59.0 66.2----
2024-05-19 02:36 amENE 6.0 7.0----29.96- 59.0 66.2----
2024-05-19 02:30 am NE 6.0 7.0----29.96- 59.0 66.2----
2024-05-19 02:24 amENE 5.1 8.0----29.96- 59.2 66.2----
2024-05-19 02:18 am E 7.0 8.9----29.96- 59.0 66.2----
2024-05-19 02:12 am E 8.0 8.9----29.96- 59.2 66.2----
2024-05-19 02:06 am E 7.0 8.0----29.97- 59.0 66.2----
2024-05-19 02:00 am E 8.0 8.9----29.97-0.01 59.0 66.2----
2024-05-19 01:54 am E 7.0 8.9----29.97- 59.4 66.2----